Weather History for Spirit of St Louis, MO

Change the Weather History Date:

Friday, September 28, 2012

  Actual Average Record
Temperature  
Mean Temperature 61 °F -  
Max Temperature 72 °F 73 °F 86 °F (2007)
Min Temperature 50 °F 47 °F 41 °F (2003)
Degree Days  
Heating Degree Days 4    
Growing Degree Days 11 (Base 50)    
Moisture  
Dew Point 52 °F    
Average Humidity 77    
Maximum Humidity 96    
Minimum Humidity 42    
Precipitation  
Precipitation 0.12 in - - ()
Sea Level Pressure  
Sea Level Pressure 30.13 in    
Wind  
Wind Speed 3 mph (NE)    
Max Wind Speed 7 mph    
Max Gust Speed -    
Visibility 10 miles    
Events Rain    
Averages and records for this station are not official NWS values.
T = Trace of Precipitation, MM = Missing Value Source: NWS Daily Summary

Daily Weather History Graph

Daily Weather History Graph

Search for Another Location

Airport:

Trip Planner

Search our weather history database for the weather conditions in past years. The results will help you decide how hot, cold, wet, or windy it might be!

Date:

Astronomy

Sep. 28, 2012 Rise Set
Actual Time 6:56 AM CDT 6:49 PM CDT
Civil Twilight 6:29 AM CDT 7:15 PM CDT
Nautical Twilight 5:58 AM CDT 7:46 PM CDT
Astronomical Twilight 5:27 AM CDT 8:17 PM CDT
Moon 5:51 PM CDT (9/28) 5:27 AM CDT (9/28)
Length of Visible Light 12h 46m
Length of Day
11h 53m
Waxing Gibbous, 98% of the Moon is Illuminated
Sep 28
Waxing Gibbous
Sep 29
Full
Oct 8
Last Quarter
Oct 15
New
Oct 21
First Quarter

Hourly Weather History & Observations

Time (CDT) Temp. Dew Point Humidity Pressure Visibility Wind Dir Wind Speed Gust Speed Precip Events Conditions
12:54 AM 64.9 °F 61.0 °F 87% 30.12 in 8.0 mi Calm Calm - 0.00 in Rain Light Rain
1:54 AM 62.1 °F 55.9 °F 80% 30.12 in 5.0 mi NE 6.9 mph - 0.05 in Rain Rain
2:45 AM 59.0 °F 53.6 °F 82% 30.13 in 10.0 mi East 4.6 mph - 0.01 in Rain Light Rain
2:52 AM 57.2 °F 53.6 °F 88% 30.13 in 10.0 mi Calm Calm - 0.01 in   Overcast
2:54 AM 57.9 °F 53.1 °F 84% 30.13 in 10.0 mi Calm Calm - 0.01 in   Overcast
3:54 AM 59.0 °F 52.0 °F 78% 30.12 in 10.0 mi ENE 3.5 mph - N/A   Overcast
4:08 AM 59.0 °F 53.6 °F 82% 30.13 in 10.0 mi East 3.5 mph - N/A   Overcast
4:54 AM 57.0 °F 53.1 °F 87% 30.13 in 10.0 mi Calm Calm - 0.03 in   Overcast
5:54 AM 57.0 °F 52.0 °F 83% 30.14 in 10.0 mi ENE 6.9 mph - 0.01 in   Overcast
6:30 AM 55.4 °F 53.6 °F 94% 30.14 in 8.0 mi ESE 3.5 mph - 0.00 in Rain Rain
6:54 AM 57.0 °F 53.1 °F 87% 30.14 in 10.0 mi ESE 3.5 mph - 0.00 in   Overcast
7:01 AM 55.4 °F 53.6 °F 94% 30.15 in 10.0 mi Calm Calm - N/A   Overcast
7:35 AM 57.2 °F 53.6 °F 88% 30.16 in 10.0 mi Calm Calm - N/A   Overcast
7:54 AM 57.0 °F 53.1 °F 87% 30.15 in 10.0 mi East 4.6 mph - N/A   Overcast
8:54 AM 57.9 °F 53.1 °F 84% 30.18 in 10.0 mi Calm Calm - 0.00 in Rain Light Rain
9:54 AM 59.0 °F 54.0 °F 83% 30.19 in 10.0 mi Calm Calm - 0.01 in   Overcast
10:54 AM 62.1 °F 53.1 °F 72% 30.19 in 10.0 mi Variable 3.5 mph - N/A   Mostly Cloudy
11:54 AM 64.9 °F 53.1 °F 65% 30.17 in 10.0 mi ESE 3.5 mph - 0.01 in   Partly Cloudy
12:54 PM 69.1 °F 50.0 °F 51% 30.15 in 10.0 mi North 5.8 mph - N/A   Scattered Clouds
1:54 PM 69.8 °F 48.2 °F 46% 30.14 in 10.0 mi NE 4.6 mph - N/A   Scattered Clouds
2:54 PM 71.1 °F 46.9 °F 42% 30.12 in 10.0 mi North 6.9 mph - N/A   Mostly Cloudy
3:54 PM 71.1 °F 48.0 °F 44% 30.11 in 10.0 mi North 3.5 mph - N/A   Clear
4:54 PM 70.0 °F 46.9 °F 44% 30.09 in 10.0 mi NNE 6.9 mph - N/A   Mostly Cloudy
5:54 PM 68.0 °F 48.0 °F 49% 30.09 in 10.0 mi NNE 4.6 mph - N/A   Mostly Cloudy
6:54 PM 61.0 °F 53.1 °F 75% 30.09 in 10.0 mi Calm Calm - N/A   Clear
7:54 PM 55.9 °F 53.1 °F 90% 30.10 in 10.0 mi Calm Calm - N/A   Scattered Clouds
8:54 PM 54.0 °F 51.1 °F 90% 30.11 in 10.0 mi Calm Calm - N/A   Clear
9:54 PM 53.1 °F 50.0 °F 89% 30.12 in 10.0 mi Calm Calm - N/A   Clear
10:54 PM 51.1 °F 50.0 °F 96% 30.14 in 8.0 mi WSW 4.6 mph - N/A   Clear
11:54 PM 50.0 °F 48.0 °F 93% 30.14 in 9.0 mi Calm Calm - N/A   Clear